Regional Weather Roundup
Issued by NWS New Orleans/Baton Rouge, LA

Home | Current Version | Previous Version | Text Only | Print | Product List | Glossary On
Versions: 1 2 3 4 5 6 7 8 9 10 11 12 13 14 15 16 17 18 19 20 21 22 23 24 25 26 27
000
ASUS44 KLIX 211507
RWRLIX
NEW ORLEANS REGIONAL WEATHER ROUNDUP
NATIONAL WEATHER SERVICE NEW ORLEANS LA
1000 AM CDT MON MAY 21 2018

NOTE: "FAIR" INDICATES FEW OR NO CLOUDS BELOW 12,000 FEET WITH NO
      SIGNIFICANT WEATHER AND/OR OBSTRUCTIONS TO VISIBILITY.
      SKY/WX - SKY CONDITION AND SIGNIFICANT WEATHER.
      TMP - AIR TEMPERATURE.     DP    - DEWPOINT TEMPERATURE.
      RH  - RELATIVE HUMIDITY.   PRES  - PRESSURE.
      HI  - HEAT INDEX.          WCI   - WIND CHILL INDEX.

*  THESE STATIONS ARE NOT NWS OR FAA STATIONS AND ARE NOT UNDER
   NWS QUALITY CONTROL.

LAZ038-040-048-061>063-065>067-069-211600-
SOUTHEAST LOUISIANA

CITY           SKY/WX    TMP DP  RH WIND       PRES   REMARKS
N.O. INTL ARPT PTSUNNY   82  74  76 N7        30.04S
N.O. LAKEFRONT FAIR      84  72  67 N6        30.05R
N.O. DOWNTOWN* CLOUDY    82  70  66 VRB3      30.05S
RESERVE*         N/A     87  71  57 CALM      30.04F
SLIDELL        FAIR      82  72  71 VRB3      30.04S
BATON ROUGE    FAIR      82  69  64 VRB3      30.04F
BOOTHVILLE     FAIR      82  73  74 SW5       30.04F
BELLE CHASSE   PTSUNNY   83  72  69 CALM      30.04R
BOGALUSA*      FAIR      82  71  69 NE5       30.06S
GALLIANO*      FAIR      83  68  61 CALM      30.04S
NEW ROADS*     PTSUNNY   86  70  59 S3        30.05F
GONZALES*      PTSUNNY   81  70  69 S3        30.04S
HAMMOND*       PTSUNNY   81  72  74 CALM      30.05S
HOUMA*         MOSUNNY   82  72  69 CALM      30.04S
PORT FOURCHON* SUNNY     82  70  65 VRB5      30.04S

$$

MSZ070-080>082-211600-
SOUTHERN MISSISSIPPI

CITY           SKY/WX    TMP DP  RH WIND       PRES   REMARKS
MCCOMB         FAIR      81  70  69 VRB6      30.07S
GULFPORT       PTSUNNY   85  72  65 E8        30.03S
BILOXI         FAIR      82  73  72 E6        30.04S
PASCAGOULA     FAIR      82  71  69 VRB3      30.05S
STENNIS ARPT*  PTSUNNY   77  70  78 NW9       30.05S

$$

COASTAL OBSERVATIONS
LAKE AND NEARSHORE STATIONS

STATION/POSITION TIME  SKY/WX   TEMP    WIND        PRES    WAVE
                                AIR SEA DIR/SP/G            HT/PER
                 (UTC)          (F)     (DEG/KT/KT) (MB)    (FT/S)
WAVELAND YACHT   1448            79 83  170/  2/  3 1017.3
GRAND ISLE       1442            82 83  190/  2/  5 1017.0
SOUTHWEST PASS   1448            83 75              1017.7
NEW CANAL        1442            81 83  360/  4/  5 1017.3
SHELL BEACH      1448            79 86  360/ 10/ 11 1017.4

OFFSHORE STATIONS

STATION/POSITION TIME  SKY/WX   TEMP    WIND        PRES    WAVE
                                AIR SEA DIR/SP/G            HT/PER
                 (UTC)          (F)     (DEG/KT/KT) (MB)    (FT/S)
64 S DAUPHIN ISL 1450               83  100/  8/ 12 1017.3    2/ 5

$$





USA.gov is the U.S. government's official web portal to all federal, state and local government web resources and services.